Regional Weather Roundup
Issued by NWS

Home | Current Version | Previous Version | Graphics & Text | Print | Product List | Glossary On
Versions: 1 2 3 4 5 6 7 8 9 10 11 12 13 14 15 16 17 18 19 20 21 22 23 24 25 26 27 28 29 30 31 32 33 34 35 36 37 38 39 40 41 42 43 44 45 46 47 48 49 50
000
ASUS43 KBIS 211802
RWRND

NORTH DAKOTA REGIONAL WEATHER ROUNDUP
NATIONAL WEATHER SERVICE BISMARCK ND
1200 PM CST SUN JAN 21 2018

NOTE: "FAIR" INDICATES FEW OR NO CLOUDS BELOW 12,000 FEET WITH NO
SIGNIFICANT WEATHER AND/OR OBSTRUCTIONS TO VISIBILITY.


NDZ001>003-009>011-017-211900-
NORTHWEST NORTH DAKOTA

CITY           SKY/WX    TMP DP  RH WIND       PRES   REMARKS
WILLISTON      SUNNY     20  16  84 S7        30.02F WCI  11
6HR MIN TEMP:   3; 6HR MAX TEMP:  20;

MINOT          CLOUDY    26  18  71 S5        30.02F
MINOT AFB      CLOUDY    24  19  78 SW3       30.02S
$$

NDZ018>021-031>035-040>046-211900-
SOUTHWEST NORTH DAKOTA

CITY           SKY/WX    TMP DP  RH WIND       PRES   REMARKS
BISMARCK       CLOUDY    23  19  85 W3        30.07F
6HR MIN TEMP:   9; 6HR MAX TEMP:  23;

DICKINSON      PTSUNNY   30  19  63 W9        30.00F
GARRISON         N/A     21  17  84 S3        30.04S
6HR MIN TEMP:   5; 6HR MAX TEMP:  21;

HETTINGER ARPT CLOUDY    27  20  75 W5        30.03F
$$

NDZ004>008-012>016-024-026-027-054-211900-
NORTHEAST NORTH DAKOTA

CITY           SKY/WX    TMP DP  RH WIND       PRES   REMARKS
GRAND FORKS    CLOUDY    25  22  88 N6        30.10F WCI  18
GRND FRKS AFB  CLOUDY    25  21  85 NE6       30.10S WCI  18
DEVILS LAKE    FOG       22  21  96 SW6       30.08S VSB 1/4 WCI  14
$$

NDZ022-023-025-028>030-036>039-047>053-211900-
SOUTHEAST NORTH DAKOTA

CITY           SKY/WX    TMP DP  RH WIND       PRES   REMARKS
FARGO          CLOUDY    22  21  96 N8        30.08S FOG     WCI  12
6HR MIN TEMP:  17; 6HR MAX TEMP:  22;

JAMESTOWN      FOG       24  24 100 N9        30.06F VSB 1/2 WCI  14
$$





USA.gov is the U.S. government's official web portal to all federal, state and local government web resources and services.